KC7FQC Weather Reports


Display with metric or nautical units.
time (UTC)temp
F
wind
direction
speed
MPH
gust
MPH
rain 1hr
in
rain 24hr
in
rain mn
in
humidity
%
barometer
mb
20200122232551 67 213 2.0 6.0 0.00 0.00 0.00 51 1016.4
20200122232051 66 213 1.0 7.0 0.00 0.00 0.00 51 1016.3
20200122231536 66 213 2.0 7.0 0.00 0.00 0.00 52 1016.3
20200122231036 66 213 2.0 9.0 0.00 0.00 0.00 52 1016.3
20200122230536 67 217 5.0 9.0 0.00 0.00 0.00 52 1016.4
20200122230051 67 214 3.0 6.0 0.00 0.00 0.00 50 1016.5
20200122225536 67 214 6.0 6.0 0.00 0.00 0.00 51 1016.4
20200122225035 67 215 2.0 5.0 0.00 0.00 0.00 52 1016.4
20200122224536 67 217 3.0 8.0 0.00 0.00 0.00 53 1016.5
20200122224051 67 216 2.0 8.0 0.00 0.00 0.00 53 1016.5
20200122223551 67 217 4.0 8.0 0.00 0.00 0.00 53 1016.5
20200122223051 68 217 0.0 7.0 0.00 0.00 0.00 53 1016.6
20200122222536 68 219 5.0 7.0 0.00 0.00 0.00 53 1016.7
20200122222035 68 219 5.0 7.0 0.00 0.00 0.00 52 1016.7
20200122221551 68 220 6.0 7.0 0.00 0.00 0.00 53 1016.7
20200122221035 68 219 5.0 7.0 0.00 0.00 0.00 53 1016.7
20200122220535 68 221 6.0 7.0 0.00 0.00 0.00 53 1016.8
20200122220036 68 220 2.0 8.0 0.00 0.00 0.00 53 1016.8
20200122215535 68 218 6.0 8.0 0.00 0.00 0.00 53 1016.9
20200122215036 69 219 3.0 8.0 0.00 0.00 0.00 52 1016.9
20200122214551 69 221 4.0 8.0 0.00 0.00 0.00 53 1017.0
20200122214051 69 223 5.0 7.0 0.00 0.00 0.00 52 1017.0
20200122213535 69 224 5.0 6.0 0.00 0.00 0.00 53 1017.1
20200122213035 69 224 4.0 8.0 0.00 0.00 0.00 51 1017.3
20200122212551 69 223 6.0 8.0 0.00 0.00 0.00 52 1017.3
20200122212035 69 222 3.0 7.0 0.00 0.00 0.00 51 1017.4
20200122211535 69 221 5.0 7.0 0.00 0.00 0.00 52 1017.3
20200122211051 69 217 2.0 6.0 0.00 0.00 0.00 51 1017.4
20200122210535 69 217 5.0 6.0 0.00 0.00 0.00 51 1017.5
20200122210035 69 219 3.0 6.0 0.00 0.00 0.00 50 1017.6
20200122205551 69 217 3.0 8.0 0.00 0.00 0.00 53 1017.6
20200122205051 70 219 2.0 8.0 0.00 0.00 0.00 51 1017.7
20200122204535 69 230 3.0 5.0 0.00 0.00 0.00 51 1017.7
20200122204036 69 230 1.0 6.0 0.00 0.00 0.00 50 1017.7
20200122203551 69 230 2.0 6.0 0.00 0.00 0.00 51 1017.8
20200122203035 69 230 2.0 6.0 0.00 0.00 0.00 52 1017.8
20200122202535 68 229 0.0 4.0 0.00 0.00 0.00 52 1017.9
20200122202035 68 229 2.0 5.0 0.00 0.00 0.00 54 1017.9
20200122201535 68 229 1.0 7.0 0.00 0.00 0.00 54 1018.0
20200122201035 67 229 4.0 7.0 0.00 0.00 0.00 55 1018.0
20200122200535 67 228 3.0 6.0 0.00 0.00 0.00 55 1018.2
20200122200035 67 218 3.0 5.0 0.00 0.00 0.00 58 1018.2
20200122195536 66 218 0.0 4.0 0.00 0.00 0.00 57 1018.1
20200122195051 66 218 2.0 6.0 0.00 0.00 0.00 57 1018.3
20200122194535 66 223 2.0 6.0 0.00 0.00 0.00 58 1018.4
20200122194051 65 223 3.0 5.0 0.00 0.00 0.00 59 1018.3
20200122193551 67 223 2.0 5.0 0.00 0.00 0.00 56 1018.5
20200122193035 66 222 4.0 5.0 0.00 0.00 0.00 58 1018.5
20200122192535 66 222 3.0 4.0 0.00 0.00 0.00 58 1018.5
20200122192051 65 221 0.0 4.0 0.00 0.00 0.00 59 1018.8
20200122191535 65 221 2.0 4.0 0.00 0.00 0.00 58 1018.7
20200122191035 65 219 3.0 5.0 0.00 0.00 0.00 58 1018.8
20200122190536 65 219 1.0 6.0 0.00 0.00 0.00 59 1019.0
20200122190035 65 219 5.0 6.0 0.00 0.00 0.00 59 1019.3
20200122185535 65 221 3.0 6.0 0.00 0.00 0.00 58 1019.3
20200122185051 65 221 4.0 6.0 0.00 0.00 0.00 59 1019.3
20200122184535 65 221 1.0 6.0 0.00 0.00 0.00 59 1019.4
20200122184035 65 221 1.0 6.0 0.00 0.00 0.00 60 1019.3
20200122183551 64 221 1.0 3.0 0.00 0.00 0.00 60 1019.5
20200122183035 64 221 2.0 5.0 0.00 0.00 0.00 62 1019.5
20200122182551 63 221 1.0 5.0 0.00 0.00 0.00 63 1019.5
20200122182035 63 218 4.0 6.0 0.00 0.00 0.00 64 1019.5
20200122181535 62 218 2.0 6.0 0.00 0.00 0.00 64 1019.6
20200122181035 62 218 1.0 6.0 0.00 0.00 0.00 65 1019.6
20200122180551 62 218 2.0 6.0 0.00 0.00 0.00 66 1019.8
20200122180051 61 217 3.0 7.0 0.00 0.00 0.00 67 1019.6
20200122175535 61 217 3.0 7.0 0.00 0.00 0.00 68 1019.7
20200122175051 61 215 4.0 6.0 0.00 0.00 0.00 68 1019.8
20200122174535 60 140 1.0 5.0 0.00 0.00 0.00 69 1019.6
20200122174036 61 140 2.0 6.0 0.00 0.00 0.00 69 1019.7
20200122173551 60 138 0.0 6.0 0.00 0.00 0.00 70 1019.6
20200122173051 60 123 1.0 5.0 0.00 0.00 0.00 73 1019.8
20200122172535 60 123 1.0 4.0 0.00 0.00 0.00 74 1019.7
20200122172050 60 123 3.0 4.0 0.00 0.00 0.00 72 1019.7
20200122171551 59 123 3.0 4.0 0.00 0.00 0.00 75 1019.7
20200122171050 59 122 2.0 7.0 0.00 0.00 0.00 75 1019.7
20200122170551 59 121 2.0 7.0 0.00 0.00 0.00 75 1019.5
20200122170035 59 112 1.0 4.0 0.00 0.00 0.00 77 1019.4
20200122165535 58 112 0.0 4.0 0.00 0.00 0.00 80 1019.3
20200122165035 58 112 3.0 3.0 0.00 0.00 0.00 80 1019.4
20200122164535 57 112 0.0 3.0 0.00 0.00 0.00 83 1019.4
20200122164050 57 112 2.0 3.0 0.00 0.00 0.00 84 1019.3
20200122163535 56 112 3.0 3.0 0.00 0.00 0.00 85 1019.2
20200122163051 56 112 1.0 4.0 0.00 0.00 0.00 87 1019.1
20200122162551 56 112 1.0 4.0 0.00 0.00 0.00 89 1019.1
20200122162050 55 112 0.0 2.0 0.00 0.00 0.00 90 1019.0
20200122161551 55 112 0.0 1.0 0.00 0.00 0.00 92 1019.0
20200122161035 55 112 0.0 1.0 0.00 0.00 0.00 92 1018.9
20200122160535 55 112 0.0 0.0 0.00 0.00 0.00 92 1018.9
20200122160036 54 112 0.0 0.0 0.00 0.00 0.00 92 1018.8
20200122155535 54 112 0.0 0.0 0.00 0.00 0.00 93 1018.8
20200122155035 54 112 0.0 0.0 0.00 0.00 0.00 94 1018.7
20200122154551 53 112 0.0 0.0 0.00 0.00 0.00 95 1018.6
20200122154035 52 112 0.0 0.0 0.00 0.00 0.00 95 1018.5
20200122153550 52 181 0.0 0.0 0.00 0.00 0.00 94 1018.5
20200122153036 52 181 0.0 0.0 0.00 0.00 0.00 94 1018.5
20200122152550 52 181 0.0 0.0 0.00 0.01 0.00 95 1018.6
20200122152035 51 181 0.0 0.0 0.00 0.01 0.00 94 1018.5
20200122151535 51 181 0.0 0.0 0.00 0.01 0.00 94 1018.5
20200122151035 51 181 0.0 0.0 0.00 0.01 0.00 94 1018.3
20200122150536 51 181 0.0 0.0 0.00 0.01 0.00 94 1018.2
20200122150035 51 181 0.0 0.0 0.00 0.01 0.00 94 1018.2
20200122145550 51 181 0.0 0.0 0.00 0.01 0.00 94 1018.3
20200122145050 51 181 0.0 0.0 0.00 0.01 0.00 94 1018.2
20200122144535 51 181 0.0 1.0 0.00 0.01 0.00 94 1018.2
20200122144051 51 181 0.0 1.0 0.00 0.01 0.00 94 1018.2
20200122143551 51 181 0.0 1.0 0.00 0.01 0.00 94 1018.0
20200122143035 51 181 0.0 0.0 0.00 0.01 0.00 94 1018.0
20200122142535 51 181 0.0 0.0 0.00 0.01 0.00 94 1017.9
20200122142051 51 181 0.0 0.0 0.00 0.01 0.00 94 1018.0
20200122141551 51 181 0.0 0.0 0.00 0.01 0.00 94 1017.9
20200122141051 51 181 0.0 0.0 0.00 0.01 0.00 94 1018.0
20200122140535 51 181 0.0 0.0 0.00 0.01 0.00 94 1018.0
20200122140035 51 181 0.0 0.0 0.00 0.01 0.00 94 1017.8
20200122135535 51 181 0.0 0.0 0.00 0.01 0.00 94 1017.7
20200122135051 51 181 0.0 0.0 0.00 0.01 0.00 94 1017.7
20200122134550 51 181 0.0 0.0 0.00 0.01 0.00 94 1017.6
20200122134050 51 181 0.0 0.0 0.00 0.01 0.00 94 1017.7
20200122133535 51 181 0.0 1.0 0.00 0.01 0.00 94 1017.6
20200122133050 51 181 0.0 1.0 0.00 0.01 0.00 94 1017.6
20200122132551 51 181 0.0 1.0 0.00 0.01 0.00 94 1017.6
20200122132050 51 181 0.0 2.0 0.00 0.01 0.00 94 1017.6
20200122131550 51 181 0.0 2.0 0.00 0.02 0.00 94 1017.5
20200122131035 51 181 0.0 1.0 0.00 0.02 0.00 93 1017.2
20200122130535 51 181 0.0 0.0 0.00 0.02 0.00 93 1017.2
20200122130037 51 181 0.0 0.0 0.00 0.02 0.00 93 1017.1
20200122125536 51 181 0.0 0.0 0.00 0.02 0.00 93 1017.0
20200122125035 51 181 0.0 0.0 0.00 0.02 0.00 93 1017.1
20200122124535 51 181 0.0 2.0 0.00 0.02 0.00 93 1017.2
20200122124050 51 181 0.0 2.0 0.00 0.02 0.00 93 1017.2
20200122123535 51 181 0.0 1.0 0.00 0.02 0.00 93 1017.3
20200122123050 51 181 1.0 1.0 0.00 0.03 0.00 93 1017.4
20200122122550 51 181 0.0 2.0 0.00 0.03 0.00 93 1017.4
20200122122035 51 181 0.0 2.0 0.00 0.03 0.00 93 1017.5
20200122121535 51 181 0.0 2.0 0.00 0.04 0.00 93 1017.5
20200122121035 51 181 0.0 2.0 0.00 0.04 0.00 93 1017.6
20200122120551 51 181 1.0 2.0 0.00 0.04 0.00 93 1017.6
20200122120036 52 181 0.0 2.0 0.00 0.04 0.00 93 1017.6
20200122115536 52 181 0.0 2.0 0.00 0.04 0.00 93 1017.6
20200122115035 52 181 0.0 1.0 0.00 0.04 0.00 93 1017.6
20200122114535 52 181 0.0 1.0 0.00 0.04 0.00 93 1017.7
20200122114035 52 181 0.0 2.0 0.00 0.04 0.00 93 1017.8
20200122113536 52 181 0.0 2.0 0.00 0.04 0.00 93 1017.7
20200122113050 52 181 1.0 2.0 0.00 0.04 0.00 93 1017.7
20200122112535 52 181 0.0 2.0 0.00 0.04 0.00 93 1017.6
20200122112035 52 181 0.0 2.0 0.00 0.04 0.00 93 1017.5
20200122111535 52 181 1.0 2.0 0.00 0.05 0.00 93 1017.6
20200122111035 52 181 0.0 2.0 0.00 0.06 0.00 93 1017.5
20200122110550 52 181 0.0 0.0 0.00 0.06 0.00 92 1017.5
20200122110035 52 181 0.0 0.0 0.00 0.06 0.00 92 1017.5
20200122105535 52 181 0.0 0.0 0.00 0.06 0.00 92 1017.2
20200122105035 52 181 0.0 0.0 0.00 0.06 0.00 92 1017.2
20200122104535 52 181 0.0 0.0 0.00 0.06 0.00 92 1017.3
20200122104035 52 181 0.0 0.0 0.00 0.06 0.00 93 1017.3
20200122103535 52 181 0.0 0.0 0.00 0.06 0.00 92 1017.4
20200122103050 52 181 0.0 0.0 0.00 0.06 0.00 92 1017.4
20200122102535 53 181 0.0 0.0 0.00 0.06 0.00 93 1017.6
20200122102035 52 181 0.0 0.0 0.00 0.06 0.00 93 1017.5
20200122101551 53 181 0.0 0.0 0.00 0.06 0.00 92 1017.4
20200122101050 53 181 0.0 0.0 0.00 0.06 0.00 92 1017.3
20200122100535 53 181 0.0 0.0 0.00 0.06 0.00 92 1017.4
20200122100035 53 181 0.0 0.0 0.00 0.06 0.00 92 1017.5
20200122095535 53 181 0.0 0.0 0.00 0.06 0.00 92 1017.6
20200122095035 53 181 0.0 0.0 0.00 0.06 0.00 92 1017.7
20200122094535 53 181 0.0 0.0 0.00 0.06 0.00 92 1017.7
20200122094035 53 181 0.0 1.0 0.00 0.06 0.00 92 1017.5
20200122093535 53 181 0.0 1.0 0.00 0.06 0.00 92 1017.5
20200122093035 53 181 0.0 1.0 0.00 0.06 0.00 92 1017.6
20200122092535 53 181 0.0 1.0 0.00 0.06 0.00 92 1017.6
20200122092050 53 181 0.0 1.0 0.00 0.06 0.00 92 1017.7
20200122091550 53 181 0.0 0.0 0.00 0.06 0.00 92 1017.6
20200122091035 53 181 0.0 0.0 0.00 0.06 0.00 92 1017.5
20200122090535 53 181 0.0 0.0 0.00 0.06 0.00 92 1017.6
20200122090050 53 181 0.0 0.0 0.00 0.06 0.00 92 1017.4
20200122085535 53 181 0.0 0.0 0.00 0.06 0.00 92 1017.3
20200122085050 53 181 0.0 0.0 0.00 0.06 0.00 92 1017.3
20200122084550 53 181 0.0 0.0 0.00 0.06 0.00 92 1017.3
20200122084035 53 181 0.0 0.0 0.00 0.06 0.00 92 1017.2
20200122083535 53 181 0.0 0.0 0.00 0.06 0.00 92 1017.3
20200122083035 53 181 0.0 0.0 0.00 0.06 0.00 92 1017.4
20200122082550 53 181 0.0 0.0 0.00 0.06 0.00 92 1017.4
20200122082050 53 181 0.0 0.0 0.00 0.06 0.00 92 1017.4
20200122081535 53 181 0.0 0.0 0.00 0.06 0.00 91 1017.3
20200122081050 53 181 0.0 0.0 0.00 0.06 0.00 92 1017.5
20200122080551 53 181 0.0 1.0 0.00 0.06 0.00 92 1017.5
20200122080035 53 181 0.0 1.0 0.00 0.06 0.00 91 1017.5
20200122075535 54 181 0.0 0.0 0.00 0.06 0.00 91 1017.7
20200122075035 54 181 0.0 0.0 0.00 0.06 0.00 91 1017.6
20200122074535 54 181 0.0 0.0 0.00 0.06 0.00 92 1017.6
20200122074050 54 181 0.0 1.0 0.00 0.06 0.00 92 1017.6
20200122073550 54 181 0.0 1.0 0.00 0.06 0.00 92 1017.6
20200122073035 54 181 0.0 0.0 0.00 0.06 0.00 91 1017.6
20200122072550 54 181 0.0 0.0 0.00 0.06 0.00 91 1017.6
20200122072035 54 181 0.0 0.0 0.00 0.06 0.00 91 1017.6
20200122071535 54 181 0.0 0.0 0.00 0.06 0.00 91 1017.6
20200122071050 54 181 0.0 0.0 0.00 0.06 0.00 90 1017.8
20200122070550 54 181 0.0 0.0 0.00 0.06 0.00 91 1017.7
20200122070050 54 181 0.0 0.0 0.00 0.06 0.00 91 1017.7
20200122065550 54 181 0.0 0.0 0.00 0.06 0.06 91 1017.7
20200122065051 54 181 0.0 0.0 0.00 0.06 0.06 90 1017.7
20200122064535 54 181 0.0 0.0 0.00 0.06 0.06 90 1017.7
20200122064050 54 181 0.0 0.0 0.00 0.06 0.06 90 1017.8
20200122063535 54 181 0.0 0.0 0.00 0.06 0.06 90 1017.7
20200122063035 54 181 0.0 0.0 0.00 0.06 0.06 91 1017.8
20200122062535 55 181 0.0 0.0 0.00 0.06 0.06 89 1017.9
20200122062035 55 181 0.0 0.0 0.00 0.06 0.06 90 1017.9
20200122061550 55 181 0.0 0.0 0.00 0.06 0.06 90 1018.0
20200122061035 55 181 0.0 0.0 0.00 0.06 0.06 90 1018.1
20200122060535 55 181 0.0 0.0 0.00 0.06 0.06 90 1018.1
20200122060050 55 181 0.0 0.0 0.00 0.06 0.06 89 1018.1
20200122055535 55 181 0.0 0.0 0.00 0.06 0.06 89 1018.1
20200122055051 55 181 0.0 0.0 0.00 0.06 0.06 90 1018.1
20200122054535 55 181 0.0 0.0 0.00 0.06 0.06 89 1018.2
20200122054035 55 181 0.0 0.0 0.00 0.06 0.06 89 1018.1
20200122053535 55 181 0.0 0.0 0.00 0.06 0.06 90 1018.1
20200122053035 55 181 0.0 0.0 0.00 0.06 0.06 89 1018.1
20200122052550 55 181 0.0 0.0 0.00 0.06 0.06 89 1018.2
20200122052035 55 181 0.0 0.0 0.00 0.06 0.06 89 1018.2
20200122051534 55 181 0.0 0.0 0.00 0.06 0.06 89 1018.1
20200122051035 55 181 0.0 0.0 0.00 0.06 0.06 89 1018.0
20200122050535 55 181 0.0 0.0 0.00 0.06 0.06 89 1017.9
20200122050050 55 181 0.0 1.0 0.00 0.06 0.06 89 1017.7
20200122045535 55 181 0.0 1.0 0.00 0.06 0.06 89 1017.6
20200122045050 55 181 0.0 0.0 0.00 0.06 0.06 89 1017.5
20200122044550 55 181 0.0 0.0 0.00 0.06 0.06 89 1017.5
20200122044035 55 181 0.0 0.0 0.00 0.06 0.06 89 1017.5
20200122043535 55 181 0.0 0.0 0.00 0.06 0.06 89 1017.5
20200122043050 55 181 0.0 0.0 0.00 0.06 0.06 89 1017.6
20200122042550 55 181 0.0 0.0 0.00 0.06 0.06 89 1017.4
20200122042050 55 181 0.0 1.0 0.00 0.06 0.06 89 1017.3
20200122041534 55 181 0.0 1.0 0.00 0.06 0.06 89 1017.3
20200122041035 55 181 0.0 1.0 0.00 0.06 0.06 89 1017.2
20200122040534 55 181 0.0 1.0 0.00 0.06 0.06 89 1017.2
20200122040035 55 181 0.0 1.0 0.00 0.06 0.06 89 1017.3
20200122035535 55 181 0.0 2.0 0.00 0.06 0.06 89 1017.3
20200122035035 55 181 0.0 3.0 0.00 0.06 0.06 89 1017.4
20200122034534 55 181 0.0 3.0 0.00 0.06 0.06 89 1017.4
20200122034034 55 181 0.0 3.0 0.00 0.06 0.06 89 1017.4
20200122033534 55 181 0.0 0.0 0.00 0.06 0.06 89 1017.5
20200122033034 55 181 0.0 2.0 0.00 0.06 0.06 89 1017.6
20200122032534 55 181 0.0 2.0 0.00 0.06 0.06 89 1017.5
20200122032035 55 181 0.0 0.0 0.00 0.06 0.06 89 1017.6
20200122031550 55 181 0.0 0.0 0.00 0.06 0.06 89 1017.6
20200122031035 55 181 0.0 3.0 0.00 0.06 0.06 89 1017.7
20200122030534 55 181 0.0 3.0 0.00 0.06 0.06 89 1017.6
20200122030034 55 181 0.0 0.0 0.00 0.06 0.06 89 1017.4
20200122025535 55 181 0.0 0.0 0.00 0.06 0.06 89 1017.3
20200122025034 55 181 0.0 2.0 0.00 0.06 0.06 89 1017.2
20200122024550 55 181 0.0 2.0 0.00 0.06 0.06 89 1017.2
20200122024034 55 181 0.0 1.0 0.00 0.06 0.06 89 1017.2
20200122023550 55 181 0.0 2.0 0.00 0.06 0.06 89 1017.0
20200122023035 55 181 1.0 2.0 0.00 0.06 0.06 89 1017.0
20200122022550 55 181 0.0 3.0 0.00 0.06 0.06 89 1017.0
20200122022034 55 181 1.0 3.0 0.00 0.06 0.06 89 1017.0
20200122021534 55 181 1.0 3.0 0.00 0.06 0.06 89 1017.0
20200122021034 55 181 2.0 3.0 0.00 0.06 0.06 89 1017.0
20200122020535 55 181 2.0 3.0 0.00 0.06 0.06 89 1016.8
20200122020050 55 181 0.0 3.0 0.00 0.06 0.06 89 1016.8
20200122015550 55 181 2.0 3.0 0.00 0.06 0.06 89 1016.6
20200122015035 55 181 2.0 3.0 0.00 0.06 0.06 89 1016.5
20200122014534 55 181 0.0 2.0 0.00 0.06 0.06 89 1016.4
20200122014050 55 181 0.0 2.0 0.00 0.06 0.06 89 1016.4
20200122013550 55 181 1.0 2.0 0.00 0.06 0.06 89 1016.3
20200122013034 55 181 0.0 2.0 0.00 0.06 0.06 89 1016.3
20200122012534 55 181 0.0 2.0 0.00 0.06 0.06 89 1016.2
20200122012050 55 181 1.0 2.0 0.00 0.06 0.06 89 1016.1
20200122011534 55 181 1.0 2.0 0.00 0.06 0.06 89 1016.0
20200122011035 55 181 0.0 2.0 0.00 0.06 0.06 89 1015.9
20200122010534 55 181 0.0 4.0 0.00 0.06 0.06 89 1015.9
20200122010049 55 181 1.0 4.0 0.00 0.06 0.06 89 1016.0
20200122005550 55 181 1.0 3.0 0.00 0.06 0.06 89 1016.0
20200122005034 55 181 2.0 3.0 0.00 0.06 0.06 89 1016.0
20200122004536 56 181 0.0 3.0 0.00 0.06 0.06 89 1016.1
20200122004034 56 181 1.0 2.0 0.00 0.06 0.06 89 1016.1
20200122003534 56 181 0.0 3.0 0.00 0.06 0.06 89 1016.1
20200122003050 56 181 0.0 3.0 0.00 0.06 0.06 89 1016.1
20200122002535 56 181 0.0 5.0 0.00 0.06 0.06 89 1016.2
20200122002034 56 181 1.0 5.0 0.00 0.06 0.06 89 1016.2
20200122001550 56 181 2.0 4.0 0.00 0.06 0.06 88 1016.1
20200122001050 56 181 0.0 5.0 0.00 0.06 0.06 88 1016.1
20200122000534 56 181 4.0 5.0 0.00 0.06 0.06 88 1016.0
20200122000034 56 181 3.0 5.0 0.00 0.06 0.06 88 1015.9
20200121235536 56 181 0.0 3.0 0.00 0.06 0.06 89 1016.0
20200121235050 56 181 0.0 4.0 0.00 0.06 0.06 88 1015.9
20200121234550 56 181 1.0 4.0 0.00 0.06 0.06 88 1015.8
20200121234034 56 181 3.0 3.0 0.00 0.06 0.06 88 1015.7
20200121233534 56 181 0.0 0.0 0.00 0.06 0.06 89 1015.7
20200121233049 56 181 0.0 1.0 0.00 0.06 0.06 89 1015.7